| time (UTC) | temp F | wind direction | speed MPH | gust MPH | rain 1hr in | rain 24hr in | rain mn in | humidity % | barometer mb |
| 20260901203604 | 81 | 140 | 1.0 | 3.0 | 0.00 | 0.64 | 0.59 | 84 | 1014.9 |
| 20260901203104 | 80 | 140 | 0.0 | 0.0 | 0.00 | 0.64 | 0.59 | 84 | 1014.9 |
| 20260901202605 | 80 | 140 | 1.0 | 2.0 | 0.00 | 0.64 | 0.59 | 84 | 1014.8 |
| 20260901202105 | 80 | 140 | 0.0 | 0.0 | 0.00 | 0.64 | 0.59 | 84 | 1014.8 |
| 20260901201104 | 81 | 140 | 0.0 | 1.0 | 0.00 | 0.64 | 0.59 | 83 | 1014.8 |
| 20260901200605 | 81 | 140 | 0.0 | 2.0 | 0.00 | 0.64 | 0.59 | 84 | 1014.8 |
| 20260901200106 | 81 | 140 | 1.0 | 3.0 | 0.00 | 0.64 | 0.59 | 84 | 1014.8 |
| 20260901195605 | 80 | 140 | 0.0 | 0.0 | 0.00 | 0.64 | 0.59 | 84 | 1014.8 |
| 20260901194605 | 80 | 142 | 2.0 | 3.0 | 0.00 | 0.64 | 0.59 | 84 | 1014.8 |
| 20260901194104 | 80 | 159 | 2.0 | 3.0 | 0.00 | 0.64 | 0.59 | 84 | 1014.8 |
| 20260901193104 | 80 | 159 | 0.0 | 2.0 | 0.00 | 0.64 | 0.59 | 84 | 1014.8 |
| 20260901192605 | 80 | 159 | 2.0 | 3.0 | 0.00 | 0.64 | 0.59 | 84 | 1014.8 |
| 20260901192106 | 80 | 164 | 3.0 | 5.0 | 0.00 | 0.64 | 0.59 | 83 | 1015.0 |
| 20260901191605 | 81 | 168 | 2.0 | 3.0 | 0.00 | 0.64 | 0.59 | 83 | 1015.1 |
| 20260901191104 | 81 | 167 | 3.0 | 7.0 | 0.00 | 0.64 | 0.59 | 83 | 1015.1 |
| 20260901190605 | 80 | 165 | 0.0 | 3.0 | 0.00 | 0.64 | 0.59 | 84 | 1015.1 |
| 20260901190105 | 80 | 164 | 0.0 | 3.0 | 0.00 | 0.64 | 0.59 | 85 | 1015.1 |
| 20260901185105 | 80 | 134 | 3.0 | 7.0 | 0.00 | 0.64 | 0.59 | 85 | 1015.2 |
| 20260901184104 | 80 | 194 | 2.0 | 7.0 | 0.00 | 0.64 | 0.59 | 86 | 1015.3 |
| 20260901183604 | 79 | 136 | 1.0 | 3.0 | 0.00 | 0.64 | 0.59 | 87 | 1015.3 |
| 20260901183104 | 79 | 129 | 1.0 | 3.0 | 0.00 | 0.64 | 0.59 | 87 | 1015.3 |
| 20260901182604 | 79 | 160 | 1.0 | 3.0 | 0.00 | 0.64 | 0.59 | 87 | 1015.2 |
| 20260901182104 | 78 | 130 | 1.0 | 3.0 | 0.00 | 0.64 | 0.59 | 87 | 1015.2 |
| 20260901181605 | 78 | 133 | 2.0 | 5.0 | 0.00 | 0.64 | 0.59 | 88 | 1015.3 |
| 20260901181105 | 78 | 155 | 3.0 | 7.0 | 0.00 | 0.64 | 0.59 | 88 | 1015.2 |
| 20260901180105 | 78 | 153 | 2.0 | 6.0 | 0.00 | 0.64 | 0.59 | 88 | 1015.3 |
| 20260901175605 | 78 | 147 | 0.0 | 3.0 | 0.00 | 0.64 | 0.59 | 90 | 1015.3 |
| 20260901175105 | 77 | 148 | 2.0 | 6.0 | 0.00 | 0.64 | 0.59 | 89 | 1015.3 |
| 20260901174604 | 78 | 169 | 2.0 | 9.0 | 0.00 | 0.64 | 0.59 | 89 | 1015.2 |
| 20260901174105 | 78 | 168 | 1.0 | 3.0 | 0.00 | 0.64 | 0.59 | 89 | 1015.2 |
| 20260901172604 | 78 | 225 | 2.0 | 6.0 | 0.00 | 0.64 | 0.59 | 93 | 1015.2 |
| 20260901172105 | 77 | 172 | 1.0 | 5.0 | 0.00 | 0.64 | 0.59 | 93 | 1015.3 |
| 20260901171604 | 76 | 176 | 3.0 | 8.0 | 0.00 | 0.64 | 0.59 | 95 | 1015.2 |
| 20260901171104 | 77 | 170 | 1.0 | 7.0 | 0.00 | 0.64 | 0.59 | 95 | 1015.2 |
| 20260901170605 | 76 | 179 | 2.0 | 7.0 | 0.00 | 0.64 | 0.59 | 96 | 1015.3 |
| 20260901170105 | 76 | 176 | 5.0 | 9.0 | 0.00 | 0.64 | 0.59 | 97 | 1015.4 |
| 20260901165604 | 76 | 171 | 2.0 | 6.0 | 0.00 | 0.64 | 0.59 | 97 | 1015.4 |
| 20260901165104 | 75 | 266 | 3.0 | 6.0 | 0.00 | 0.64 | 0.59 | 97 | 1015.6 |
| 20260901164105 | 74 | 163 | 0.0 | 3.0 | 0.00 | 0.64 | 0.59 | 98 | 1015.7 |
| 20260901163605 | 74 | 168 | 0.0 | 1.0 | 0.00 | 0.64 | 0.59 | 98 | 1015.6 |
| 20260901162605 | 73 | 168 | 1.0 | 3.0 | 0.00 | 0.64 | 0.59 | 97 | 1015.9 |
| 20260901162104 | 73 | 156 | 0.0 | 0.0 | 0.00 | 0.64 | 0.59 | 98 | 1016.0 |
| 20260901161604 | 72 | 156 | 0.0 | 0.0 | 0.01 | 0.64 | 0.59 | 97 | 1015.9 |
| 20260901161104 | 72 | 156 | 1.0 | 3.0 | 0.01 | 0.64 | 0.59 | 97 | 1015.8 |
| 20260901160105 | 72 | 156 | 1.0 | 3.0 | 0.01 | 0.64 | 0.59 | 97 | 1016.2 |
| 20260901155105 | 72 | 156 | 0.0 | 2.0 | 0.02 | 0.64 | 0.59 | 97 | 1016.6 |
| 20260901154605 | 72 | 157 | 0.0 | 1.0 | 0.02 | 0.64 | 0.59 | 97 | 1016.6 |
| 20260901154104 | 72 | 158 | 0.0 | 0.0 | 0.02 | 0.64 | 0.59 | 97 | 1016.8 |
| 20260901153605 | 72 | 158 | 0.0 | 0.0 | 0.03 | 0.64 | 0.59 | 97 | 1016.9 |
| 20260901153104 | 72 | 186 | 0.0 | 0.0 | 0.03 | 0.64 | 0.59 | 97 | 1017.0 |
| 20260901152605 | 72 | 186 | 0.0 | 0.0 | 0.04 | 0.64 | 0.59 | 97 | 1017.1 |
| 20260901152105 | 72 | 186 | 0.0 | 0.0 | 0.05 | 0.64 | 0.59 | 97 | 1017.0 |
| 20260901151604 | 71 | 186 | 0.0 | 0.0 | 0.04 | 0.63 | 0.58 | 97 | 1016.9 |
| 20260901150604 | 71 | 184 | 0.0 | 2.0 | 0.05 | 0.63 | 0.58 | 97 | 1016.9 |
| 20260901150104 | 71 | 184 | 1.0 | 3.0 | 0.05 | 0.63 | 0.58 | 97 | 1016.8 |
| 20260901145104 | 71 | 212 | 0.0 | 0.0 | 0.04 | 0.62 | 0.57 | 97 | 1017.0 |
| 20260901144605 | 71 | 212 | 0.0 | 0.0 | 0.04 | 0.62 | 0.57 | 97 | 1016.8 |
| 20260901144104 | 71 | 212 | 0.0 | 0.0 | 0.05 | 0.62 | 0.57 | 97 | 1016.8 |
| 20260901143604 | 71 | 212 | 0.0 | 0.0 | 0.04 | 0.61 | 0.56 | 97 | 1017.0 |
| 20260901143104 | 71 | 212 | 0.0 | 0.0 | 0.05 | 0.61 | 0.56 | 97 | 1016.9 |
| 20260901142604 | 71 | 212 | 0.0 | 0.0 | 0.04 | 0.60 | 0.55 | 97 | 1016.8 |
| 20260901142105 | 71 | 212 | 0.0 | 0.0 | 0.04 | 0.59 | 0.54 | 97 | 1016.7 |
| 20260901141606 | 71 | 212 | 0.0 | 0.0 | 0.05 | 0.59 | 0.54 | 97 | 1016.9 |
| 20260901141105 | 71 | 212 | 0.0 | 0.0 | 0.05 | 0.59 | 0.54 | 97 | 1016.8 |
| 20260901140605 | 71 | 212 | 0.0 | 0.0 | 0.05 | 0.58 | 0.53 | 97 | 1017.0 |
| 20260901140105 | 71 | 212 | 0.0 | 0.0 | 0.05 | 0.58 | 0.53 | 97 | 1017.0 |
| 20260901135604 | 71 | 212 | 0.0 | 1.0 | 0.05 | 0.58 | 0.53 | 97 | 1016.9 |
| 20260901135104 | 71 | 212 | 0.0 | 0.0 | 0.05 | 0.58 | 0.53 | 97 | 1016.9 |
| 20260901134604 | 71 | 212 | 0.0 | 2.0 | 0.05 | 0.58 | 0.53 | 97 | 1016.9 |
| 20260901134105 | 71 | 122 | 0.0 | 0.0 | 0.04 | 0.57 | 0.52 | 97 | 1017.2 |
| 20260901133105 | 71 | 121 | 0.0 | 0.0 | 0.03 | 0.56 | 0.51 | 97 | 1016.9 |
| 20260901132604 | 71 | 121 | 0.0 | 0.0 | 0.03 | 0.56 | 0.51 | 97 | 1017.0 |
| 20260901132104 | 71 | 121 | 0.0 | 0.0 | 0.02 | 0.55 | 0.50 | 97 | 1017.1 |
| 20260901131604 | 70 | 121 | 0.0 | 0.0 | 0.01 | 0.54 | 0.49 | 97 | 1017.2 |
| 20260901131104 | 70 | 121 | 0.0 | 0.0 | 0.01 | 0.54 | 0.49 | 97 | 1017.1 |
| 20260901130605 | 70 | 121 | 0.0 | 0.0 | 0.00 | 0.53 | 0.48 | 97 | 1017.1 |
| 20260901130105 | 70 | 122 | 0.0 | 0.0 | 0.00 | 0.53 | 0.48 | 97 | 1016.9 |
| 20260901125605 | 70 | 122 | 0.0 | 0.0 | 0.00 | 0.53 | 0.48 | 97 | 1017.0 |
| 20260901125104 | 70 | 122 | 0.0 | 0.0 | 0.00 | 0.53 | 0.48 | 97 | 1017.3 |
| 20260901124604 | 70 | 122 | 0.0 | 0.0 | 0.00 | 0.53 | 0.48 | 97 | 1017.4 |
| 20260901124104 | 70 | 122 | 0.0 | 0.0 | 0.00 | 0.53 | 0.48 | 97 | 1017.6 |
| 20260901123604 | 70 | 122 | 0.0 | 0.0 | 0.00 | 0.53 | 0.48 | 97 | 1017.3 |
| 20260901123105 | 70 | 122 | 0.0 | 0.0 | 0.00 | 0.53 | 0.48 | 97 | 1017.3 |
| 20260901122604 | 70 | 122 | 0.0 | 0.0 | 0.01 | 0.53 | 0.48 | 97 | 1017.2 |
| 20260901122104 | 70 | 122 | 0.0 | 0.0 | 0.01 | 0.53 | 0.48 | 97 | 1017.1 |
| 20260901121105 | 70 | 122 | 0.0 | 0.0 | 0.01 | 0.53 | 0.48 | 97 | 1016.8 |
| 20260901120604 | 70 | 122 | 0.0 | 0.0 | 0.01 | 0.53 | 0.48 | 97 | 1016.9 |
| 20260901120105 | 70 | 122 | 0.0 | 0.0 | 0.01 | 0.53 | 0.48 | 97 | 1017.0 |
| 20260901115605 | 70 | 122 | 0.0 | 0.0 | 0.01 | 0.53 | 0.48 | 97 | 1016.9 |
| 20260901115104 | 70 | 122 | 0.0 | 0.0 | 0.01 | 0.53 | 0.48 | 97 | 1016.9 |
| 20260901114604 | 70 | 122 | 0.0 | 0.0 | 0.02 | 0.53 | 0.48 | 97 | 1016.7 |
| 20260901114105 | 70 | 122 | 0.0 | 0.0 | 0.02 | 0.53 | 0.48 | 97 | 1016.7 |
| 20260901113604 | 70 | 122 | 0.0 | 0.0 | 0.02 | 0.53 | 0.48 | 97 | 1016.9 |
| 20260901113104 | 70 | 122 | 0.0 | 0.0 | 0.03 | 0.53 | 0.48 | 97 | 1016.8 |
| 20260901112606 | 70 | 122 | 0.0 | 0.0 | 0.02 | 0.52 | 0.47 | 97 | 1016.8 |
| 20260901111605 | 70 | 122 | 0.0 | 0.0 | 0.02 | 0.52 | 0.47 | 97 | 1016.9 |
| 20260901111104 | 70 | 122 | 0.0 | 0.0 | 0.02 | 0.52 | 0.47 | 97 | 1017.0 |
| 20260901110605 | 70 | 122 | 0.0 | 0.0 | 0.02 | 0.52 | 0.47 | 97 | 1017.2 |
| 20260901110104 | 70 | 122 | 0.0 | 0.0 | 0.02 | 0.52 | 0.47 | 97 | 1017.0 |
| 20260901105604 | 70 | 122 | 0.0 | 0.0 | 0.02 | 0.52 | 0.47 | 96 | 1017.0 |
| 20260901105104 | 70 | 122 | 0.0 | 0.0 | 0.02 | 0.52 | 0.47 | 96 | 1017.0 |
| 20260901104106 | 69 | 122 | 0.0 | 0.0 | 0.01 | 0.51 | 0.46 | 96 | 1017.0 |
| 20260901103604 | 69 | 122 | 0.0 | 0.0 | 0.01 | 0.51 | 0.46 | 96 | 1017.1 |
| 20260901103104 | 69 | 122 | 0.0 | 0.0 | 0.00 | 0.50 | 0.45 | 96 | 1017.1 |
| 20260901102604 | 69 | 122 | 0.0 | 0.0 | 0.00 | 0.50 | 0.45 | 96 | 1017.1 |
| 20260901102105 | 69 | 122 | 0.0 | 0.0 | 0.00 | 0.50 | 0.45 | 96 | 1017.0 |
| 20260901101604 | 69 | 122 | 0.0 | 0.0 | 0.00 | 0.50 | 0.45 | 96 | 1016.9 |
| 20260901100605 | 69 | 122 | 0.0 | 0.0 | 0.00 | 0.50 | 0.45 | 96 | 1017.0 |
| 20260901100104 | 69 | 122 | 0.0 | 0.0 | 0.00 | 0.50 | 0.45 | 96 | 1016.9 |
| 20260901095605 | 69 | 122 | 0.0 | 0.0 | 0.00 | 0.50 | 0.45 | 96 | 1016.9 |
| 20260901095105 | 69 | 122 | 0.0 | 0.0 | 0.00 | 0.50 | 0.45 | 96 | 1016.8 |
| 20260901094604 | 69 | 122 | 0.0 | 0.0 | 0.00 | 0.50 | 0.45 | 96 | 1016.8 |
| 20260901094104 | 69 | 122 | 0.0 | 0.0 | 0.00 | 0.50 | 0.45 | 96 | 1016.8 |
| 20260901093604 | 69 | 122 | 0.0 | 0.0 | 0.00 | 0.50 | 0.45 | 96 | 1016.8 |
| 20260901093105 | 69 | 122 | 0.0 | 0.0 | 0.00 | 0.50 | 0.45 | 96 | 1017.0 |
| 20260901091604 | 69 | 122 | 0.0 | 0.0 | 0.00 | 0.50 | 0.45 | 96 | 1016.9 |
| 20260901091104 | 69 | 122 | 0.0 | 0.0 | 0.00 | 0.50 | 0.45 | 96 | 1016.9 |
| 20260901090606 | 69 | 122 | 0.0 | 0.0 | 0.00 | 0.50 | 0.45 | 96 | 1016.9 |
| 20260901090104 | 69 | 122 | 0.0 | 0.0 | 0.00 | 0.50 | 0.45 | 96 | 1017.0 |
| 20260901085604 | 69 | 122 | 0.0 | 0.0 | 0.00 | 0.50 | 0.45 | 96 | 1017.0 |
| 20260901085104 | 69 | 122 | 0.0 | 0.0 | 0.00 | 0.50 | 0.45 | 96 | 1017.0 |
| 20260901084604 | 69 | 122 | 0.0 | 0.0 | 0.00 | 0.50 | 0.45 | 96 | 1017.0 |
| 20260901084105 | 69 | 122 | 0.0 | 0.0 | 0.00 | 0.50 | 0.45 | 96 | 1017.0 |
| 20260901082604 | 69 | 122 | 0.0 | 0.0 | 0.00 | 0.50 | 0.45 | 96 | 1017.2 |
| 20260901082104 | 69 | 122 | 0.0 | 0.0 | 0.00 | 0.50 | 0.45 | 96 | 1017.3 |
| 20260901081106 | 69 | 122 | 0.0 | 0.0 | 0.00 | 0.50 | 0.45 | 96 | 1017.2 |
| 20260901080605 | 69 | 122 | 0.0 | 0.0 | 0.00 | 0.50 | 0.45 | 96 | 1017.3 |
| 20260901080104 | 69 | 122 | 0.0 | 0.0 | 0.00 | 0.50 | 0.45 | 96 | 1017.3 |
| 20260901075604 | 69 | 122 | 0.0 | 0.0 | 0.00 | 0.50 | 0.45 | 96 | 1017.3 |
| 20260901075105 | 69 | 122 | 0.0 | 0.0 | 0.00 | 0.50 | 0.45 | 96 | 1017.4 |
| 20260901074604 | 69 | 122 | 0.0 | 0.0 | 0.00 | 0.50 | 0.45 | 96 | 1017.5 |
| 20260901074104 | 69 | 122 | 0.0 | 0.0 | 0.00 | 0.50 | 0.45 | 96 | 1017.6 |
| 20260901073604 | 69 | 122 | 0.0 | 0.0 | 0.00 | 0.50 | 0.45 | 96 | 1017.7 |
| 20260901073104 | 69 | 122 | 0.0 | 0.0 | 0.01 | 0.50 | 0.45 | 96 | 1017.7 |
| 20260901072604 | 69 | 122 | 0.0 | 0.0 | 0.01 | 0.50 | 0.45 | 96 | 1017.7 |
| 20260901072105 | 69 | 122 | 0.0 | 0.0 | 0.01 | 0.50 | 0.45 | 96 | 1017.6 |
| 20260901071605 | 69 | 122 | 0.0 | 0.0 | 0.01 | 0.50 | 0.45 | 96 | 1017.6 |
| 20260901071104 | 69 | 122 | 0.0 | 0.0 | 0.01 | 0.50 | 0.45 | 96 | 1017.6 |
| 20260901070604 | 69 | 122 | 0.0 | 0.0 | 0.01 | 0.50 | 0.45 | 96 | 1017.6 |
| 20260901070105 | 69 | 122 | 0.0 | 0.0 | 0.01 | 0.50 | 0.45 | 96 | 1017.8 |
| 20260901065604 | 69 | 122 | 0.0 | 0.0 | 0.01 | 0.50 | 0.45 | 96 | 1017.8 |
| 20260901065105 | 69 | 122 | 0.0 | 0.0 | 0.02 | 0.50 | 0.45 | 96 | 1017.9 |
| 20260901064605 | 69 | 122 | 0.0 | 0.0 | 0.02 | 0.50 | 0.45 | 96 | 1018.0 |
| 20260901064105 | 69 | 122 | 0.0 | 0.0 | 0.03 | 0.50 | 0.45 | 96 | 1018.0 |
| 20260901063105 | 69 | 122 | 0.0 | 0.0 | 0.03 | 0.49 | 0.44 | 96 | 1018.0 |
| 20260901062604 | 69 | 122 | 0.0 | 1.0 | 0.05 | 0.49 | 0.44 | 96 | 1018.0 |
| 20260901061604 | 69 | 122 | 0.0 | 0.0 | 0.06 | 0.49 | 0.44 | 96 | 1018.1 |
| 20260901061104 | 69 | 122 | 0.0 | 0.0 | 0.07 | 0.49 | 0.44 | 95 | 1018.1 |
| 20260901060604 | 69 | 122 | 0.0 | 0.0 | 0.09 | 0.49 | 0.44 | 95 | 1018.2 |
| 20260901060104 | 69 | 122 | 0.0 | 0.0 | 0.12 | 0.49 | 0.44 | 95 | 1018.2 |
| 20260901055604 | 69 | 122 | 0.0 | 0.0 | 0.15 | 0.49 | 0.44 | 95 | 1018.3 |
| 20260901055104 | 69 | 122 | 0.0 | 1.0 | 0.16 | 0.48 | 0.43 | 95 | 1018.3 |
| 20260901054604 | 69 | 122 | 1.0 | 3.0 | 0.20 | 0.48 | 0.43 | 95 | 1018.2 |
| 20260901054105 | 69 | 121 | 0.0 | 3.0 | 0.23 | 0.47 | 0.42 | 95 | 1018.3 |
| 20260901053605 | 69 | 121 | 2.0 | 3.0 | 0.28 | 0.46 | 0.41 | 95 | 1018.4 |
| 20260901052608 | 69 | 261 | 1.0 | 3.0 | 0.28 | 0.44 | 0.39 | 95 | 1018.6 |
| 20260901052104 | 69 | 261 | 2.0 | 3.0 | 0.29 | 0.44 | 0.39 | 95 | 1018.5 |
| 20260901051104 | 69 | 256 | 0.0 | 2.0 | 0.30 | 0.42 | 0.37 | 95 | 1018.5 |
| 20260901050604 | 69 | 256 | 1.0 | 2.0 | 0.31 | 0.40 | 0.35 | 95 | 1018.5 |
| 20260901050105 | 69 | 256 | 0.0 | 1.0 | 0.31 | 0.37 | 0.32 | 95 | 1018.4 |
| 20260901045604 | 69 | 256 | 0.0 | 0.0 | 0.24 | 0.34 | 0.29 | 95 | 1018.4 |
| 20260901045104 | 69 | 256 | 0.0 | 2.0 | 0.22 | 0.32 | 0.27 | 95 | 1018.4 |
| 20260901044605 | 69 | 256 | 0.0 | 2.0 | 0.19 | 0.28 | 0.23 | 95 | 1018.5 |
| 20260901043604 | 69 | 256 | 0.0 | 0.0 | 0.10 | 0.18 | 0.13 | 95 | 1018.5 |
| 20260901043104 | 69 | 256 | 0.0 | 0.0 | 0.10 | 0.17 | 0.12 | 94 | 1018.5 |
| 20260901042604 | 70 | 256 | 0.0 | 1.0 | 0.10 | 0.16 | 0.11 | 94 | 1018.5 |
| 20260901042104 | 70 | 256 | 0.0 | 0.0 | 0.09 | 0.15 | 0.10 | 94 | 1018.6 |
| 20260901041604 | 70 | 256 | 0.0 | 0.0 | 0.08 | 0.14 | 0.09 | 94 | 1018.6 |
| 20260901041105 | 70 | 256 | 0.0 | 0.0 | 0.06 | 0.12 | 0.07 | 94 | 1018.7 |
| 20260901040604 | 70 | 256 | 0.0 | 0.0 | 0.03 | 0.09 | 0.04 | 94 | 1018.7 |
| 20260901040104 | 70 | 256 | 0.0 | 0.0 | 0.00 | 0.06 | 0.01 | 94 | 1018.7 |
| 20260901035104 | 70 | 256 | 0.0 | 0.0 | 0.05 | 0.05 | 0.05 | 94 | 1018.8 |
| 20260901034604 | 70 | 256 | 0.0 | 0.0 | 0.04 | 0.04 | 0.04 | 94 | 1018.8 |
| 20260901034105 | 70 | 256 | 0.0 | 0.0 | 0.04 | 0.04 | 0.04 | 94 | 1018.8 |
| 20260901033604 | 70 | 256 | 0.0 | 0.0 | 0.03 | 0.03 | 0.03 | 94 | 1018.8 |
| 20260901033104 | 70 | 256 | 0.0 | 0.0 | 0.02 | 0.02 | 0.02 | 94 | 1018.8 |
| 20260901032604 | 70 | 256 | 0.0 | 0.0 | 0.01 | 0.01 | 0.01 | 94 | 1018.8 |
| 20260901032104 | 70 | 256 | 0.0 | 0.0 | 0.01 | 0.01 | 0.01 | 94 | 1018.9 |
| 20260901031604 | 70 | 256 | 0.0 | 0.0 | 0.01 | 0.01 | 0.01 | 94 | 1018.9 |
| 20260901031104 | 70 | 256 | 0.0 | 0.0 | 0.01 | 0.01 | 0.01 | 93 | 1018.9 |
| 20260901030605 | 70 | 256 | 0.0 | 0.0 | 0.01 | 0.01 | 0.01 | 93 | 1018.8 |
| 20260901030104 | 70 | 256 | 0.0 | 0.0 | 0.01 | 0.01 | 0.01 | 93 | 1018.9 |
| 20260901025604 | 70 | 256 | 1.0 | 2.0 | 0.00 | 0.00 | 0.00 | 93 | 1018.8 |
| 20260901025104 | 70 | 256 | 0.0 | 0.0 | 0.00 | 0.00 | 0.00 | 93 | 1018.9 |
| 20260901024604 | 70 | 256 | 0.0 | 0.0 | 0.00 | 0.00 | 0.00 | 93 | 1019.1 |
| 20260901024104 | 70 | 256 | 0.0 | 1.0 | 0.00 | 0.00 | 0.00 | 93 | 1019.0 |
| 20260901023604 | 70 | 256 | 0.0 | 1.0 | 0.00 | 0.00 | 0.00 | 93 | 1019.0 |
| 20260901022105 | 70 | 256 | 0.0 | 0.0 | 0.00 | 0.00 | 0.00 | 93 | 1019.2 |
| 20260901021604 | 70 | 256 | 0.0 | 0.0 | 0.00 | 0.00 | 0.00 | 93 | 1019.2 |
| 20260901021104 | 70 | 256 | 0.0 | 0.0 | 0.00 | 0.00 | 0.00 | 93 | 1019.2 |
| 20260901020605 | 70 | 256 | 0.0 | 0.0 | 0.00 | 0.00 | 0.00 | 93 | 1019.2 |
| 20260901020105 | 70 | 256 | 0.0 | 0.0 | 0.00 | 0.00 | 0.00 | 93 | 1019.2 |
| 20260901015604 | 70 | 256 | 0.0 | 0.0 | 0.00 | 0.00 | 0.00 | 93 | 1019.1 |
| 20260901015104 | 70 | 256 | 0.0 | 0.0 | 0.00 | 0.00 | 0.00 | 93 | 1019.2 |
| 20260901014604 | 70 | 256 | 0.0 | 0.0 | 0.00 | 0.01 | 0.00 | 92 | 1019.1 |
| 20260901014105 | 70 | 256 | 0.0 | 0.0 | 0.00 | 0.01 | 0.00 | 92 | 1019.2 |
| 20260901013604 | 70 | 256 | 0.0 | 0.0 | 0.00 | 0.01 | 0.00 | 92 | 1019.1 |
| 20260901013104 | 70 | 256 | 0.0 | 0.0 | 0.00 | 0.02 | 0.00 | 92 | 1019.1 |
| 20260901012605 | 70 | 256 | 0.0 | 0.0 | 0.00 | 0.02 | 0.00 | 92 | 1019.2 |
| 20260901012104 | 70 | 256 | 0.0 | 0.0 | 0.00 | 0.02 | 0.00 | 92 | 1019.2 |
| 20260901011605 | 70 | 256 | 0.0 | 0.0 | 0.00 | 0.02 | 0.00 | 92 | 1019.3 |
| 20260901011104 | 71 | 256 | 0.0 | 0.0 | 0.00 | 0.02 | 0.00 | 92 | 1019.3 |
| 20260901010604 | 71 | 256 | 0.0 | 0.0 | 0.00 | 0.02 | 0.00 | 92 | 1019.3 |
| 20260901010105 | 71 | 256 | 0.0 | 0.0 | 0.00 | 0.02 | 0.00 | 92 | 1019.2 |
| 20260901005604 | 71 | 256 | 0.0 | 0.0 | 0.00 | 0.02 | 0.00 | 92 | 1019.3 |
| 20260901005104 | 71 | 256 | 0.0 | 0.0 | 0.00 | 0.02 | 0.00 | 91 | 1019.2 |
| 20260901004604 | 71 | 256 | 0.0 | 0.0 | 0.00 | 0.02 | 0.00 | 91 | 1019.3 |
| 20260901003605 | 71 | 256 | 0.0 | 0.0 | 0.00 | 0.02 | 0.00 | 91 | 1019.4 |
| 20260901003106 | 71 | 256 | 0.0 | 2.0 | 0.00 | 0.02 | 0.00 | 91 | 1019.4 |
| 20260901002604 | 71 | 256 | 0.0 | 0.0 | 0.00 | 0.02 | 0.00 | 90 | 1019.3 |
| 20260901001604 | 71 | 256 | 0.0 | 3.0 | 0.00 | 0.03 | 0.00 | 90 | 1019.3 |
| 20260901000605 | 71 | 256 | 1.0 | 3.0 | 0.00 | 0.03 | 0.00 | 89 | 1019.2 |
| 20260831235604 | 72 | 256 | 0.0 | 0.0 | 0.00 | 0.03 | 0.00 | 89 | 1019.3 |
| 20260831234604 | 72 | 256 | 0.0 | 0.0 | 0.00 | 0.03 | 0.00 | 89 | 1019.2 |
| 20260831234104 | 72 | 256 | 0.0 | 0.0 | 0.00 | 0.03 | 0.00 | 89 | 1019.2 |
| 20260831233104 | 72 | 256 | 0.0 | 0.0 | 0.00 | 0.03 | 0.00 | 88 | 1019.1 |
| 20260831232104 | 72 | 256 | 0.0 | 0.0 | 0.00 | 0.03 | 0.00 | 88 | 1019.2 |
| 20260831231104 | 72 | 256 | 0.0 | 0.0 | 0.00 | 0.03 | 0.00 | 87 | 1019.3 |
| 20260831230604 | 73 | 256 | 0.0 | 0.0 | 0.00 | 0.03 | 0.00 | 88 | 1019.4 |
| 20260831230104 | 73 | 256 | 0.0 | 0.0 | 0.00 | 0.03 | 0.00 | 88 | 1019.5 |
| 20260831225604 | 73 | 256 | 0.0 | 0.0 | 0.00 | 0.03 | 0.00 | 87 | 1019.5 |
| 20260831225105 | 73 | 256 | 0.0 | 0.0 | 0.00 | 0.03 | 0.00 | 87 | 1019.6 |
| 20260831224628 | 73 | 256 | 0.0 | 0.0 | 0.00 | 0.03 | 0.00 | 87 | 1019.5 |
| 20260831223604 | 73 | 256 | 0.0 | 0.0 | 0.00 | 0.03 | 0.00 | 87 | 1019.6 |
| 20260831223104 | 73 | 256 | 2.0 | 3.0 | 0.00 | 0.03 | 0.00 | 86 | 1019.6 |
| 20260831221604 | 73 | 256 | 1.0 | 3.0 | 0.00 | 0.03 | 0.00 | 87 | 1019.6 |
| 20260831221105 | 73 | 256 | 0.0 | 0.0 | 0.00 | 0.03 | 0.00 | 87 | 1019.5 |
| 20260831220604 | 73 | 256 | 0.0 | 0.0 | 0.00 | 0.03 | 0.00 | 87 | 1019.5 |
| 20260831215605 | 73 | 256 | 2.0 | 3.0 | 0.00 | 0.03 | 0.00 | 87 | 1019.7 |
| 20260831215104 | 73 | 256 | 1.0 | 3.0 | 0.00 | 0.03 | 0.00 | 87 | 1019.8 |
| 20260831214104 | 73 | 256 | 0.0 | 2.0 | 0.00 | 0.03 | 0.00 | 86 | 1019.7 |
| 20260831213604 | 73 | 256 | 2.0 | 3.0 | 0.00 | 0.03 | 0.00 | 86 | 1019.6 |
| 20260831213104 | 73 | 256 | 1.0 | 3.0 | 0.00 | 0.03 | 0.00 | 86 | 1019.7 |
| 20260831212604 | 73 | 255 | 2.0 | 6.0 | 0.00 | 0.03 | 0.00 | 86 | 1019.7 |
| 20260831211105 | 74 | 239 | 1.0 | 6.0 | 0.00 | 0.03 | 0.00 | 83 | 1019.7 |
| 20260831210105 | 74 | 225 | 0.0 | 0.0 | 0.00 | 0.03 | 0.00 | 81 | 1019.7 |
| 20260831205604 | 74 | 225 | 0.0 | 1.0 | 0.00 | 0.03 | 0.00 | 80 | 1019.6 |
| 20260831205104 | 74 | 225 | 0.0 | 0.0 | 0.00 | 0.03 | 0.00 | 79 | 1019.6 |
| 20260831204604 | 75 | 225 | 0.0 | 1.0 | 0.00 | 0.03 | 0.00 | 80 | 1019.6 |